Weather History for Wilmington, NC

Change the Weather History Date:

Sunday, February 2, 2014

  Actual Average Record
Temperature  
Mean Temperature 58 °F 47 °F  
Max Temperature 72 °F 58 °F 80 °F (1950)
Min Temperature 44 °F 37 °F 17 °F (1980)
Degree Days  
Heating Degree Days 7 18  
Month to date heating degree days 29 36  
Since 1 July heating degree days 1503 1511  
Cooling Degree Days 0 0  
Month to date cooling degree days 0 0  
Year to date cooling degree days 3 2  
Growing Degree Days 8 (Base 50)    
Moisture  
Dew Point 47 °F    
Average Humidity 74    
Maximum Humidity 100    
Minimum Humidity 47    
Precipitation  
Precipitation 0.00 in 0.13 in 1.58 in (1982)
Month to date precipitation 0.01 0.25  
Year to date precipitation 2.78 4.01  
Snow  
Snow 0.00 in 0.00 in T in (1978)
Month to date snowfall 0.0 0.0  
Since 1 July snowfall 1.0 1.2  
Snow Depth 0.00 in    
Sea Level Pressure  
Sea Level Pressure 30.12 in    
Wind  
Wind Speed 5 mph (WSW)    
Max Wind Speed 16 mph    
Max Gust Speed 18 mph    
Visibility 5 miles    
Events Fog    
T = Trace of Precipitation, MM = Missing Value Source: NWS Daily Summary

Daily Weather History Graph

Daily Weather History Graph

Search for Another Location

Airport:

Trip Planner

Search our weather history database for the weather conditions in past years. The results will help you decide how hot, cold, wet, or windy it might be!

Date:

Astronomy

Feb. 02, 2014 Rise Set
Actual Time 7:08 AM EST 5:42 PM EST
Civil Twilight 6:42 AM EST 6:09 PM EST
Nautical Twilight 6:12 AM EST 6:38 PM EST
Astronomical Twilight 5:42 AM EST 7:08 PM EST
Moon 8:44 AM EST (2/2) 9:12 PM EST (2/2)
Length of Visible Light 11h 26m
Length of Day
10h 34m
Waxing Crescent, 11% of the Moon is Illuminated
Feb 2
Waxing Crescent
Feb 6
First Quarter
Feb 14
Full
Feb 22
Last Quarter
Mar 1
New

Hourly Weather History & Observations

Time (EST) Temp. Windchill Dew Point Humidity Pressure Visibility Wind Dir Wind Speed Gust Speed Precip Events Conditions
12:02 AM 44.6 °F 43.1 °F 42.8 °F 93% 30.12 in 0.5 mi West 3.5 mph - N/A Fog Fog
12:10 AM 44.6 °F 43.1 °F 42.8 °F 93% 30.12 in 1.8 mi West 3.5 mph - N/A   Overcast
12:14 AM 44.6 °F 42.2 °F 42.8 °F 93% 30.12 in 3.0 mi WSW 4.6 mph - N/A   Overcast
12:53 AM 44.1 °F - 43.0 °F 96% 30.12 in 3.0 mi Calm Calm - N/A   Overcast
1:53 AM 44.1 °F 42.5 °F 42.1 °F 93% 30.11 in 3.0 mi West 3.5 mph - N/A   Overcast
2:14 AM 44.6 °F - 42.8 °F 93% 30.12 in 2.5 mi Calm Calm - N/A   Overcast
2:53 AM 44.1 °F - 43.0 °F 96% 30.11 in 2.5 mi Calm Calm - N/A   Overcast
3:39 AM 44.6 °F - 42.8 °F 93% 30.12 in 1.8 mi Calm Calm - N/A   Overcast
3:53 AM 45.0 °F 43.5 °F 43.0 °F 93% 30.12 in 2.0 mi WSW 3.5 mph - N/A   Overcast
4:11 AM 44.6 °F 42.2 °F 42.8 °F 93% 30.13 in 1.8 mi West 4.6 mph - N/A   Overcast
4:29 AM 44.6 °F - 42.8 °F 93% 30.11 in 2.0 mi Calm Calm - N/A   Overcast
4:53 AM 45.0 °F - 43.0 °F 93% 30.12 in 2.5 mi Calm Calm - N/A   Overcast
5:05 AM 44.6 °F - 42.8 °F 93% 30.13 in 3.0 mi Calm Calm - N/A   Overcast
5:32 AM 44.6 °F 42.2 °F 42.8 °F 93% 30.13 in 2.5 mi South 4.6 mph - N/A   Overcast
5:49 AM 46.4 °F 43.5 °F 44.6 °F 93% 30.13 in 1.8 mi SW 5.8 mph - N/A   Overcast
5:53 AM 46.0 °F 43.1 °F 44.1 °F 93% 30.13 in 1.5 mi SW 5.8 mph - N/A   Overcast
6:19 AM 48.2 °F - 46.4 °F 93% 30.13 in 2.5 mi SW 4.6 mph - N/A   Overcast
6:28 AM 48.2 °F - 46.4 °F 93% 30.13 in 3.0 mi SSW 6.9 mph - N/A   Overcast
6:36 AM 48.2 °F - 46.4 °F 93% 30.13 in 1.8 mi WSW 6.9 mph - N/A   Overcast
6:43 AM 48.2 °F - 46.4 °F 93% 30.13 in 0.8 mi SW 6.9 mph - N/A   Overcast
6:53 AM 48.0 °F - 46.0 °F 93% 30.14 in 0.5 mi SW 6.9 mph - N/A Fog Fog
7:19 AM 46.4 °F 43.5 °F 46.4 °F 100% 30.14 in 1.0 mi WSW 5.8 mph - N/A   Overcast
7:29 AM 46.4 °F 42.9 °F 46.4 °F 100% 30.14 in 0.8 mi SW 6.9 mph - N/A   Overcast
7:53 AM 46.9 °F - 46.0 °F 97% 30.14 in 1.2 mi SW 4.6 mph - N/A   Overcast
8:07 AM 48.2 °F - 46.4 °F 93% 30.14 in 0.8 mi WSW 4.6 mph - N/A   Overcast
8:28 AM 48.2 °F - 46.4 °F 93% 30.15 in 1.5 mi SW 3.5 mph - N/A   Overcast
8:38 AM 48.2 °F - 46.4 °F 93% 30.14 in 2.5 mi West 3.5 mph - N/A   Overcast
8:49 AM 48.2 °F - 46.4 °F 93% 30.14 in 3.0 mi West 3.5 mph - N/A   Overcast
8:53 AM 48.0 °F - 46.0 °F 93% 30.14 in 4.0 mi West 3.5 mph - N/A   Overcast
9:26 AM 51.8 °F - 46.4 °F 82% 30.14 in 8.0 mi WSW 3.5 mph - N/A   Scattered Clouds
9:53 AM 55.0 °F - 48.0 °F 77% 30.14 in 10.0 mi West 3.5 mph - N/A   Clear
10:53 AM 61.0 °F - 51.1 °F 70% 30.15 in 10.0 mi SW 4.6 mph - N/A   Clear
11:53 AM 66.0 °F - 53.1 °F 63% 30.14 in 10.0 mi West 10.4 mph - N/A   Clear
12:53 PM 69.1 °F - 52.0 °F 54% 30.11 in 10.0 mi West 10.4 mph - N/A   Clear
1:53 PM 70.0 °F - 51.1 °F 51% 30.08 in 10.0 mi WNW 10.4 mph - N/A   Clear
2:53 PM 71.1 °F - 50.0 °F 47% 30.07 in 10.0 mi WSW 9.2 mph - N/A   Clear
3:53 PM 70.0 °F - 50.0 °F 49% 30.08 in 10.0 mi West 9.2 mph - N/A   Clear
4:53 PM 69.1 °F - 50.0 °F 51% 30.07 in 10.0 mi SW 5.8 mph - N/A   Clear
5:53 PM 62.1 °F - 50.0 °F 65% 30.09 in 10.0 mi SSW 5.8 mph - N/A   Clear
6:53 PM 59.0 °F - 50.0 °F 72% 30.10 in 10.0 mi SSW 4.6 mph - N/A   Clear
7:53 PM 55.9 °F - 48.9 °F 77% 30.09 in 10.0 mi SSW 3.5 mph - N/A   Clear
8:53 PM 54.0 °F - 48.9 °F 83% 30.09 in 10.0 mi South 4.6 mph - N/A   Clear
9:53 PM 53.1 °F - 48.0 °F 83% 30.09 in 10.0 mi South 3.5 mph - N/A   Clear
10:53 PM 53.1 °F - 48.9 °F 86% 30.08 in 10.0 mi Calm Calm - N/A   Clear
11:53 PM 54.0 °F - 48.9 °F 83% 30.06 in 10.0 mi South 3.5 mph - N/A   Clear